[Iaude] MPEC G79: 2024 GZ [a=1.73,e=0.39,i=5.0,H=26.5]

mpec at cfa.harvard.edu mpec at cfa.harvard.edu
Sat Apr 6 09:45:42 EDT 2024


M.P.E.C. 2024-G79                                 Issued 2024 April 6, 13:44 UT

     The Minor Planet Electronic Circulars contain information on unusual
         minor planets, routine data on comets and natural satellites,
         and occasional editorial announcements.  They are published
    on behalf of Division F of the International Astronomical Union by the
          Minor Planet Center, Smithsonian Astrophysical Observatory,
                          Cambridge, MA 02138, U.S.A.
			  
             Prepared using the Tamkin Foundation Computer Network

                              MPC at CFA.HARVARD.EDU
            URL https://www.minorplanetcenter.net/    ISSN 1523-6714

                                    2024 GZ                                     


Observations:
     K24G00Z*KC2024 04 04.19076 12 52 40.01 -05 26 49.3          20.2 GVEG079W94
     K24G00Z KC2024 04 04.19686 12 52 41.91 -05 27 44.5          19.8 GVEG079W94
     K24G00Z KC2024 04 04.20301 12 52 43.98 -05 28 40.7          20.3 GVEG079W94
     K24G00Z KC2024 04 04.25788 12 53 01.09 -05 36 49.5                VEG079X10
     K24G00Z KC2024 04 04.26319 12 53 02.84 -05 37 36.9          20.0 GVEG079X10
     K24G00Z KC2024 04 04.26850 12 53 04.48 -05 38 24.3          19.5 GVEG079X10
     K24G00Z KC2024 04 04.34080512 53 34.192-05 51 30.96         20.44GVEG079I52
     K24G00Z KC2024 04 04.34173612 53 34.487-05 51 39.42         20.25GVEG079I52
     K24G00Z KC2024 04 04.34267812 53 34.793-05 51 47.70         20.39GVEG079I52
     K24G00Z KC2024 04 05.48028213 00 58.956-08 43 15.96         20.6 GVEG079474
     K24G00Z KC2024 04 05.48419613 01 00.326-08 43 53.18         20.5 GVEG079474
     K24G00Z KC2024 04 05.48821113 01 01.752-08 44 31.24         20.2 GVEG079474
     K24G00Z KC2024 04 05.49343413 01 03.631-08 45 20.81         20.5 GVEG079474
     K24G00Z KC2024 04 05.49710113 01 04.901-08 45 55.30         20.4 GVEG079474
     K24G00Z KB2024 04 06.03844113 04 48.838-10 13 09.23         21.0 VZEG079Y05
     K24G00Z KB2024 04 06.04758613 04 52.162-10 14 38.18         20.8 VZEG079Y05
     K24G00Z KB2024 04 06.05660313 04 55.399-10 16 06.20         21.7 VZEG079Y05
     K24G00Z |C2024 04 06.09780013 05 13.840-10 22 14.50         20.1 GVEG079807
     K24G00Z |C2024 04 06.10330013 05 15.860-10 23 08.50         20.4 GVEG079807
     K24G00Z |C2024 04 06.10880013 05 17.890-10 24 02.30         20.3 GVEG079807
     K24G00Z KC2024 04 06.19958013 05 53.09 -10 41 40.7          20.4 GVEG079H21
     K24G00Z KC2024 04 06.20242813 05 54.14 -10 42 08.5          20.4 GVEG079H21
     K24G00Z KC2024 04 06.20404113 05 54.74 -10 42 24.5          20.3 GVEG079H21
     K24G00Z KC2024 04 06.21229513 05 57.75 -10 43 45.2          20.5 GVEG079H21

Observer details:
474 Mount John Observatory, Lake Tekapo.  Observers A. C. Gilmore, P. M.
    Kilmartin.  Measurer P. M. Kilmartin.  0.6-m f/6.3 Reflector + CCD.
807 Cerro Tololo Observatory, La Serena.  Observers T. Linder, R. Holmes.
    0.61-m f/6.8 Ritchey-Chretien + CCD.
H21 Astronomical Research Observatory, Westfield.  Observer R. Holmes.
    Measurers T. Linder, R. Holmes, L. Horn.  0.81-m f/4.0 astrograph + CCD.
I52 Steward Observatory, Mt. Lemmon Station.  Observer R. A. Kowalski.
    Measurers T. Beuden, V. F. Carvajal, D. Fay, J. B. Fazekas, D. C. Fuls, A.
    R. Gibbs, A. D. Grauer, H. Groeller, J. K. Hogan, R. A. Kowalski, S. M.
    Larson, G. J. Leonard, D. Rankin, R. L. Seaman, F. C. Shelly, K. W.
    Wierzchos.  1.0-m prime focus + CCD.
W94 MAP, San Pedro de Atacama.  Observers A. Maury, G. Attard.  Measurers A.
    Maury, G. Attard, D. Parrott, F. Signoret, J.-M. Mari.  0.36-m f/1.9
    Schmidt astrograph + CCD.
X10 OVTLN, San Pedro de Atacama.  Observers A. Maury, G. Attard, F. Signoret.
    Measurers A. Maury, G. Attard, D. Parrott, J.-M. Mari, F. Signoret.
    0.50-m f/4  reflector + CCD.
Y05 SONEAR Wykrota-CEAMIG, Serra da Piedade.  Observers C. Jacques, A.
    Caetano, E. Pimentel.  Measurer C. Jacques.  0.45-m f/2.9 reflector + CMO.

Orbital elements:
2024 GZ                                                  Earth MOID = 0.0503 AU
Epoch 2024 Mar. 31.0 TT = JDT 2460400.5                 Veres                   
M 353.11245              (2000.0)            P               Q                  
n   0.43133430     Peri.  192.54724     -0.88950634     +0.45639748             
a   1.7348425      Node    14.66733     -0.41138812     -0.77907963             
e   0.3943087      Incl.    4.96278     -0.19884236     -0.42980957             
P   2.29           H   26.53          G   0.15           U   7                  
Residuals in seconds of arc
240404 W94 (0.9-  3.4+)   240404 I52  0.1+  0.1-    240406 Y05  0.0   0.1-
240404 W94  0.9-  2.5+    240405 474  0.0   0.3+    240406 807  0.0   0.1+
240404 W94  1.4+  1.0+    240405 474  0.2-  0.1+    240406 807  0.1-  0.1-
240404 X10  0.7-  0.0     240405 474  0.2-  0.1+    240406 807  0.1+  0.2-
240404 X10  0.2+  0.2-    240405 474  0.3+  0.1+    240406 H21  0.0   0.2+
240404 X10  0.6-  0.4-    240405 474  0.1-  0.3+    240406 H21  0.0   0.2+
240404 I52  0.0   0.1-    240406 Y05  0.9-  0.2-    240406 H21  0.1+  0.1-
240404 I52  0.0   0.2-    240406 Y05  0.3-  0.0     240406 H21  0.1-  0.2-

Ephemeris:
2024 GZ                  a,e,i = 1.73, 0.39, 5                   q = 1.0508
Date    TT    R. A. (2000) Decl.     Delta      r    Elong.  Phase     V
2024 03 07    11 30 16.1 +23 51 54   0.1441  1.1295   160.8    16.8    23.5
...
2024 03 22    11 57 10.4 +16 06 42   0.08997 1.0828   163.2    15.5    22.3
...
2024 03 30    12 25 14.8 +05 33 16   0.06802 1.0658   170.4     9.0    21.4
...
2024 04 05    12 57 46.9 -07 29 50   0.05670 1.0571   178.5     1.4    20.6
2024 04 06    13 04 27.4 -10 07 20   0.05541 1.0560   176.2     3.6    20.7
2024 04 07    13 11 32.0 -12 50 57   0.05432 1.0550   173.7     6.0    20.8
...
2024 04 13    14 02 53.2 -29 58 18   0.05237 1.0512   157.3    21.6    21.3
...
2024 04 21    15 30 02.5 -47 16 38   0.06115 1.0521   139.4    38.4    22.1
...
2024 05 06    17 42 52.4 -56 12 27   0.09546 1.0714   129.0    47.0    23.4

M. P. C. Staff               (C) Copyright 2024 MPC           M.P.E.C. 2024-G79





More information about the Iaude mailing list